Time,TemperatureF,DewpointF,PressureIn,WindDirection,WindDirectionDegrees,WindSpeedMPH,WindSpeedGustMPH,Humidity,HourlyPrecipIn,Conditions,Clouds,dailyrainin,SoftwareType,DateUTC
2013-10-15 00:01:00,60.8,56.6,29.61,SE,135,0.0,0.0,86,0.00,RA,SCT,0.00,WeatherDisplay:10.37,2013-10-15 04:01:00,
2013-10-15 00:02:00,60.8,56.6,29.61,SE,135,0.0,0.0,86,0.00,RA,SCT,0.00,WeatherDisplay:10.37,2013-10-15 04:02:00,
2013-10-15 00:07:00,60.8,56.6,29.61,SE,135,0.0,0.0,86,0.00,RA,SCT,0.00,WeatherDisplay:10.37,2013-10-15 04:07:00,
2013-10-15 00:12:00,60.6,56.7,29.62,SE,135,0.0,0.0,87,0.00,CLR,SCT,0.00,WeatherDisplay:10.37,2013-10-15 04:12:00,
2013-10-15 00:17:00,60.6,57.0,29.61,South,180,0.0,0.0,88,0.00,CLR,SCT,0.00,WeatherDisplay:10.37,2013-10-15 04:17:00,
2013-10-15 00:22:00,60.6,57.0,29.61,SE,135,0.0,0.0,88,0.00,CLR,SCT,0.00,WeatherDisplay:10.37,2013-10-15 04:22:00,
2013-10-15 00:27:00,60.4,56.9,29.62,South,180,0.0,0.0,88,0.00,CLR,SCT,0.00,WeatherDisplay:10.37,2013-10-15 04:27:00,
2013-10-15 00:32:00,60.4,56.9,29.61,South,180,1.2,0.0,88,0.00,CLR,SCT,0.00,WeatherDisplay:10.37,2013-10-15 04:32:00,
2013-10-15 00:37:00,60.4,56.9,29.61,South,180,2.3,0.0,88,0.00,CLR,SCT,0.00,WeatherDisplay:10.37,2013-10-15 04:37:00,
2013-10-15 00:42:00,60.4,57.2,29.61,North,0,0.0,0.0,89,0.00,CLR,SCT,0.00,WeatherDisplay:10.37,2013-10-15 04:42:00,
2013-10-15 00:47:00,60.4,57.2,29.61,South,180,0.0,0.0,89,0.00,CLR,SCT,0.00,WeatherDisplay:10.37,2013-10-15 04:47:00,
2013-10-15 00:52:00,60.4,57.2,29.61,SE,135,1.2,0.0,89,0.00,CLR,SCT,0.00,WeatherDisplay:10.37,2013-10-15 04:52:00,
2013-10-15 00:57:00,60.4,57.2,29.61,SE,135,1.2,0.0,89,0.00,CLR,SCT,0.00,WeatherDisplay:10.37,2013-10-15 04:57:00,
2013-10-15 01:02:00,60.3,57.0,29.61,NE,45,1.2,0.0,89,0.00,CLR,SCT,0.00,WeatherDisplay:10.37,2013-10-15 05:02:00,
2013-10-15 01:07:00,60.3,57.0,29.61,NE,45,0.0,0.0,89,0.00,CLR,SCT,0.00,WeatherDisplay:10.37,2013-10-15 05:07:00,
2013-10-15 01:12:00,60.3,57.0,29.61,SE,135,0.0,0.0,89,0.00,CLR,SCT,0.00,WeatherDisplay:10.37,2013-10-15 05:12:00,
2013-10-15 01:17:00,60.3,57.0,29.61,South,180,0.0,0.0,89,0.00,CLR,SCT,0.00,WeatherDisplay:10.37,2013-10-15 05:17:00,
2013-10-15 01:22:00,60.3,57.0,29.61,SW,225,0.0,0.0,89,0.00,CLR,SCT,0.00,WeatherDisplay:10.37,2013-10-15 05:22:00,
2013-10-15 01:27:00,60.3,57.0,29.60,SE,135,0.0,0.0,89,0.00,CLR,SCT,0.00,WeatherDisplay:10.37,2013-10-15 05:27:00,
2013-10-15 01:32:00,60.3,57.0,29.60,SE,135,1.2,0.0,89,0.00,CLR,SCT,0.00,WeatherDisplay:10.37,2013-10-15 05:32:00,
2013-10-15 01:37:00,60.3,56.7,29.60,North,0,0.0,0.0,88,0.00,CLR,SCT,0.00,WeatherDisplay:10.37,2013-10-15 05:37:00,
2013-10-15 01:42:00,60.3,56.7,29.61,NE,45,0.0,0.0,88,0.00,CLR,SCT,0.00,WeatherDisplay:10.37,2013-10-15 05:42:00,
2013-10-15 01:47:00,60.3,56.4,29.61,NE,45,0.0,0.0,87,0.00,CLR,SCT,0.00,WeatherDisplay:10.37,2013-10-15 05:47:00,
2013-10-15 01:52:00,60.3,56.1,29.60,SE,135,1.2,0.0,86,0.00,CLR,SCT,0.00,WeatherDisplay:10.37,2013-10-15 05:52:00,
2013-10-15 01:57:00,60.3,56.1,29.60,North,0,0.0,0.0,86,0.00,CLR,SCT,0.00,WeatherDisplay:10.37,2013-10-15 05:57:00,
2013-10-15 02:02:00,60.1,55.9,29.60,North,0,1.2,0.0,86,0.00,CLR,SCT,0.00,WeatherDisplay:10.37,2013-10-15 06:02:00,
2013-10-15 02:07:00,59.9,55.7,29.60,North,0,1.2,0.0,86,0.00,CLR,SCT,0.00,WeatherDisplay:10.37,2013-10-15 06:07:00,
2013-10-15 02:12:00,59.7,55.5,29.60,North,0,1.2,0.0,86,0.00,CLR,SCT,0.00,WeatherDisplay:10.37,2013-10-15 06:12:00,
2013-10-15 02:17:00,59.7,55.5,29.60,North,0,0.0,0.0,86,0.00,CLR,SCT,0.00,WeatherDisplay:10.37,2013-10-15 06:17:00,
2013-10-15 02:22:00,59.7,55.8,29.59,North,0,0.0,0.0,87,0.00,CLR,SCT,0.00,WeatherDisplay:10.37,2013-10-15 06:22:00,
2013-10-15 02:27:00,59.7,55.8,29.60,SE,135,1.2,0.0,87,0.00,CLR,SCT,0.00,WeatherDisplay:10.37,2013-10-15 06:27:00,
2013-10-15 02:32:00,59.7,55.8,29.59,SE,135,0.0,0.0,87,0.00,CLR,SCT,0.00,WeatherDisplay:10.37,2013-10-15 06:32:00,
2013-10-15 02:37:00,59.7,55.8,29.59,SE,135,0.0,0.0,87,0.00,CLR,SCT,0.00,WeatherDisplay:10.37,2013-10-15 06:37:00,
2013-10-15 02:42:00,59.7,55.8,29.59,South,180,0.0,0.0,87,0.00,CLR,SCT,0.00,WeatherDisplay:10.37,2013-10-15 06:42:00,
2013-10-15 02:47:00,59.7,55.8,29.59,North,0,0.7,0.0,87,0.00,CLR,SCT,0.00,WeatherDisplay:10.37,2013-10-15 06:47:00,
2013-10-15 02:52:00,59.7,55.8,29.59,East,90,0.0,0.0,87,0.00,CLR,SCT,0.00,WeatherDisplay:10.37,2013-10-15 06:52:00,
2013-10-15 02:57:00,59.5,55.7,29.59,NE,45,1.2,0.0,87,0.00,CLR,SCT,0.00,WeatherDisplay:10.37,2013-10-15 06:57:00,
2013-10-15 03:02:00,59.5,55.7,29.59,NE,45,1.2,0.0,87,0.00,CLR,SCT,0.00,WeatherDisplay:10.37,2013-10-15 07:02:00,
2013-10-15 03:07:00,59.5,55.7,29.58,SE,135,1.2,0.0,87,0.00,CLR,SCT,0.00,WeatherDisplay:10.37,2013-10-15 07:07:00,
2013-10-15 03:12:00,59.5,55.7,29.59,North,0,0.0,0.0,87,0.00,CLR,SCT,0.00,WeatherDisplay:10.37,2013-10-15 07:12:00,
2013-10-15 03:17:00,59.4,55.5,29.59,East,90,1.2,0.0,87,0.00,CLR,SCT,0.00,WeatherDisplay:10.37,2013-10-15 07:17:00,
2013-10-15 03:22:00,59.4,55.5,29.59,NE,45,1.2,0.0,87,0.00,CLR,SCT,0.00,WeatherDisplay:10.37,2013-10-15 07:22:00,
2013-10-15 03:27:00,59.2,55.3,29.59,SE,135,0.0,0.0,87,0.00,CLR,SCT,0.00,WeatherDisplay:10.37,2013-10-15 07:27:00,
2013-10-15 03:32:00,59.0,55.4,29.59,North,0,0.0,0.0,88,0.00,CLR,SCT,0.00,WeatherDisplay:10.37,2013-10-15 07:32:00,
2013-10-15 03:37:00,58.8,55.6,29.59,NW,315,0.0,0.0,89,0.00,CLR,SCT,0.00,WeatherDisplay:10.37,2013-10-15 07:37:00,
2013-10-15 03:42:00,58.6,55.4,29.58,North,0,1.2,0.0,89,0.00,CLR,SCT,0.00,WeatherDisplay:10.37,2013-10-15 07:42:00,
2013-10-15 03:47:00,58.5,55.5,29.58,North,0,1.2,0.0,90,0.00,CLR,SCT,0.00,WeatherDisplay:10.37,2013-10-15 07:47:00,
2013-10-15 03:52:00,58.3,55.4,29.58,North,0,0.0,0.0,90,0.00,CLR,SCT,0.00,WeatherDisplay:10.37,2013-10-15 07:52:00,
2013-10-15 03:58:00,58.1,55.2,29.58,North,0,0.0,0.0,90,0.00,CLR,SCT,0.00,WeatherDisplay:10.37,2013-10-15 07:58:00,
2013-10-15 04:03:00,58.1,55.2,29.58,North,0,0.0,0.0,90,0.00,CLR,SCT,0.00,WeatherDisplay:10.37,2013-10-15 08:03:00,
2013-10-15 04:08:00,57.9,55.0,29.59,North,0,0.0,0.0,90,0.00,CLR,SCT,0.00,WeatherDisplay:10.37,2013-10-15 08:08:00,
2013-10-15 04:13:00,57.7,54.8,29.59,South,180,0.0,0.0,90,0.00,CLR,SCT,0.00,WeatherDisplay:10.37,2013-10-15 08:13:00,
2013-10-15 04:18:00,57.6,54.6,29.58,South,180,0.0,0.0,90,0.00,CLR,SCT,0.00,WeatherDisplay:10.37,2013-10-15 08:18:00,
2013-10-15 04:23:00,57.2,54.3,29.58,SE,135,0.0,0.0,90,0.00,CLR,SCT,0.00,WeatherDisplay:10.37,2013-10-15 08:23:00,
2013-10-15 04:28:00,56.8,54.2,29.58,SE,135,1.2,0.0,91,0.00,CLR,SCT,0.00,WeatherDisplay:10.37,2013-10-15 08:28:00,
2013-10-15 04:33:00,56.7,54.4,29.58,SE,135,1.2,0.0,92,0.00,CLR,SCT,0.00,WeatherDisplay:10.37,2013-10-15 08:33:00,
2013-10-15 04:38:00,56.7,54.4,29.58,North,0,0.0,0.0,92,0.00,CLR,SCT,0.00,WeatherDisplay:10.37,2013-10-15 08:38:00,
2013-10-15 04:43:00,56.7,54.4,29.57,NW,315,0.0,0.0,92,0.00,CLR,SCT,0.00,WeatherDisplay:10.37,2013-10-15 08:43:00,
2013-10-15 04:48:00,56.5,54.5,29.58,West,270,0.0,0.0,93,0.00,CLR,SCT,0.00,WeatherDisplay:10.37,2013-10-15 08:48:00,
2013-10-15 04:50:00,56.3,54.3,29.58,West,270,0.0,0.0,93,0.00,CLR,SCT,0.00,WeatherDisplay:10.37,2013-10-15 08:50:00,
2013-10-15 04:55:00,56.1,53.8,29.57,West,270,0.0,0.0,92,0.00,CLR,SCT,0.00,WeatherDisplay:10.37,2013-10-15 08:55:00,
2013-10-15 05:00:00,55.9,53.9,29.57,North,0,0.0,0.0,93,0.00,CLR,SCT,0.00,WeatherDisplay:10.37,2013-10-15 09:00:00,
2013-10-15 05:05:00,55.8,53.8,29.57,SW,225,0.0,0.0,93,0.00,CLR,SCT,0.00,WeatherDisplay:10.37,2013-10-15 09:05:00,
2013-10-15 05:10:00,55.8,53.8,29.57,North,0,0.0,0.0,93,0.00,CLR,SCT,0.00,WeatherDisplay:10.37,2013-10-15 09:10:00,
2013-10-15 05:15:00,55.6,53.9,29.57,North,0,0.0,0.0,94,0.00,CLR,SCT,0.00,WeatherDisplay:10.37,2013-10-15 09:15:00,
2013-10-15 05:20:00,55.6,53.9,29.57,North,0,0.0,0.0,94,0.00,CLR,SCT,0.00,WeatherDisplay:10.37,2013-10-15 09:20:00,
2013-10-15 05:25:00,55.4,53.7,29.57,North,0,0.0,0.0,94,0.00,CLR,SCT,0.00,WeatherDisplay:10.37,2013-10-15 09:25:00,
2013-10-15 05:30:00,55.2,53.5,29.57,North,0,0.0,0.0,94,0.00,CLR,SCT,0.00,WeatherDisplay:10.37,2013-10-15 09:30:00,
2013-10-15 05:35:00,55.0,53.3,29.57,North,0,0.0,0.0,94,0.00,CLR,SCT,0.00,WeatherDisplay:10.37,2013-10-15 09:35:00,
2013-10-15 05:40:00,55.0,53.6,29.57,North,0,0.0,0.0,95,0.00,CLR,SCT,0.00,WeatherDisplay:10.37,2013-10-15 09:40:00,
2013-10-15 05:45:00,55.0,53.6,29.57,North,0,0.0,0.0,95,0.00,CLR,SCT,0.00,WeatherDisplay:10.37,2013-10-15 09:45:00,
2013-10-15 05:50:00,55.2,53.8,29.57,North,0,0.0,0.0,95,0.00,CLR,SCT,0.00,WeatherDisplay:10.37,2013-10-15 09:50:00,
2013-10-15 05:55:00,55.0,53.6,29.57,North,0,1.2,0.0,95,0.00,CLR,SCT,0.00,WeatherDisplay:10.37,2013-10-15 09:55:00,
2013-10-15 06:00:00,55.0,53.6,29.57,North,0,1.2,0.0,95,0.00,CLR,SCT,0.00,WeatherDisplay:10.37,2013-10-15 10:00:00,
2013-10-15 06:05:00,55.0,53.6,29.56,North,0,1.2,0.0,95,0.00,CLR,SCT,0.00,WeatherDisplay:10.37,2013-10-15 10:05:00,
2013-10-15 06:10:00,54.7,53.3,29.56,South,180,1.2,0.0,95,0.00,CLR,SCT,0.00,WeatherDisplay:10.37,2013-10-15 10:10:00,
2013-10-15 06:15:00,54.3,52.9,29.57,South,180,1.2,0.0,95,0.00,CLR,SCT,0.00,WeatherDisplay:10.37,2013-10-15 10:15:00,
2013-10-15 06:20:00,54.1,52.7,29.57,South,180,0.0,0.0,95,0.00,CLR,SCT,0.00,WeatherDisplay:10.37,2013-10-15 10:20:00,
2013-10-15 06:25:00,54.0,52.6,29.57,South,180,0.0,0.0,95,0.00,CLR,SCT,0.00,WeatherDisplay:10.37,2013-10-15 10:25:00,
2013-10-15 06:30:00,53.8,52.4,29.57,South,180,0.0,0.0,95,0.00,CLR,SCT,0.00,WeatherDisplay:10.37,2013-10-15 10:30:00,
2013-10-15 06:35:00,53.6,52.2,29.57,North,0,0.0,0.0,95,0.00,CLR,SCT,0.00,WeatherDisplay:10.37,2013-10-15 10:35:00,
2013-10-15 06:40:00,53.6,52.2,29.57,SE,135,0.0,0.0,95,0.00,CLR,SCT,0.00,WeatherDisplay:10.37,2013-10-15 10:40:00,
2013-10-15 06:45:00,53.4,52.3,29.57,SE,135,0.0,0.0,96,0.00,CLR,SCT,0.00,WeatherDisplay:10.37,2013-10-15 10:45:00,
2013-10-15 06:50:00,53.2,52.1,29.57,SE,135,0.0,0.0,96,0.00,CLR,SCT,0.00,WeatherDisplay:10.37,2013-10-15 10:50:00,
2013-10-15 06:55:00,53.2,52.1,29.57,SE,135,0.0,0.0,96,0.00,CLR,SCT,0.00,WeatherDisplay:10.37,2013-10-15 10:55:00,
2013-10-15 07:00:00,53.1,52.0,29.57,NW,315,0.0,0.0,96,0.00,CLR,SCT,0.00,WeatherDisplay:10.37,2013-10-15 11:00:00,
2013-10-15 07:05:00,53.1,52.0,29.57,NW,315,0.0,0.0,96,0.00,CLR,SCT,0.00,WeatherDisplay:10.37,2013-10-15 11:05:00,
2013-10-15 07:10:00,52.9,51.8,29.57,NW,315,0.0,0.0,96,0.00,CLR,SCT,0.00,WeatherDisplay:10.37,2013-10-15 11:10:00,
2013-10-15 07:15:00,52.9,51.8,29.57,NW,315,0.0,0.0,96,0.00,CLR,SCT,0.00,WeatherDisplay:10.37,2013-10-15 11:15:00,
2013-10-15 07:20:00,52.7,51.6,29.57,NW,315,0.0,0.0,96,0.00,CLR,SCT,0.00,WeatherDisplay:10.37,2013-10-15 11:20:00,
2013-10-15 07:25:00,52.7,51.6,29.58,NW,315,0.0,0.0,96,0.00,CLR,SCT,0.00,WeatherDisplay:10.37,2013-10-15 11:25:00,
2013-10-15 07:30:00,52.5,51.7,29.58,NW,315,0.0,0.0,97,0.00,CLR,SCT,0.00,WeatherDisplay:10.37,2013-10-15 11:30:00,
2013-10-15 07:35:00,52.5,51.7,29.58,NW,315,0.0,0.0,97,0.00,CLR,SCT,0.00,WeatherDisplay:10.37,2013-10-15 11:35:00,
2013-10-15 07:40:00,52.3,51.5,29.58,NW,315,0.0,0.0,97,0.00,CLR,SCT,0.00,WeatherDisplay:10.37,2013-10-15 11:40:00,
2013-10-15 07:45:00,52.3,51.5,29.57,NW,315,0.0,0.0,97,0.00,CLR,SCT,0.00,WeatherDisplay:10.37,2013-10-15 11:45:00,
2013-10-15 07:50:00,52.3,51.5,29.57,NW,315,0.0,0.0,97,0.00,CLR,SCT,0.00,WeatherDisplay:10.37,2013-10-15 11:50:00,
2013-10-15 07:55:00,52.7,51.9,29.58,NW,315,0.0,0.0,97,0.00,CLR,SCT,0.00,WeatherDisplay:10.37,2013-10-15 11:55:00,
2013-10-15 08:00:00,52.9,52.1,29.58,NW,315,0.0,0.0,97,0.00,CLR,SCT,0.00,WeatherDisplay:10.37,2013-10-15 12:00:00,
2013-10-15 08:05:00,53.4,52.6,29.58,NW,315,0.0,0.0,97,0.00,CLR,SCT,0.00,WeatherDisplay:10.37,2013-10-15 12:05:00,
2013-10-15 08:10:00,54.9,54.0,29.58,NW,315,0.0,0.0,97,0.00,CLR,SCT,0.00,WeatherDisplay:10.37,2013-10-15 12:10:00,
2013-10-15 08:15:00,56.3,55.5,29.58,SW,225,0.0,0.0,97,0.00,CLR,SCT,0.00,WeatherDisplay:10.37,2013-10-15 12:15:00,
2013-10-15 08:20:00,57.0,56.2,29.58,South,180,0.0,0.0,97,0.00,CLR,SCT,0.00,WeatherDisplay:10.37,2013-10-15 12:20:00,
2013-10-15 08:25:00,57.6,56.1,29.58,South,180,0.0,0.0,95,0.00,CLR,SCT,0.00,WeatherDisplay:10.37,2013-10-15 12:25:00,
2013-10-15 08:30:00,57.7,55.7,29.58,South,180,0.0,0.0,93,0.00,CLR,SCT,0.00,WeatherDisplay:10.37,2013-10-15 12:30:00,
2013-10-15 08:35:00,57.4,55.1,29.58,South,180,0.0,0.0,92,0.00,CLR,SCT,0.00,WeatherDisplay:10.37,2013-10-15 12:35:00,
2013-10-15 08:40:00,56.8,54.2,29.58,South,180,0.0,0.0,91,0.00,CLR,SCT,0.00,WeatherDisplay:10.37,2013-10-15 12:40:00,
2013-10-15 08:45:00,57.7,54.8,29.59,South,180,0.0,0.0,90,0.00,CLR,SCT,0.00,WeatherDisplay:10.37,2013-10-15 12:45:00,
2013-10-15 08:51:00,57.9,54.7,29.59,South,180,0.0,0.0,89,0.00,CLR,SCT,0.00,WeatherDisplay:10.37,2013-10-15 12:51:00,
2013-10-15 08:56:00,59.0,55.4,29.59,South,180,0.0,0.0,88,0.00,CLR,SCT,0.00,WeatherDisplay:10.37,2013-10-15 12:56:00,
2013-10-15 09:01:00,59.5,55.7,29.59,South,180,0.0,0.0,87,0.00,CLR,SCT,0.00,WeatherDisplay:10.37,2013-10-15 13:01:00,
2013-10-15 09:06:00,60.1,55.9,29.59,South,180,0.0,0.0,86,0.00,CLR,SCT,0.00,WeatherDisplay:10.37,2013-10-15 13:06:00,
2013-10-15 09:11:00,62.1,57.2,29.59,South,180,0.0,0.0,84,0.00,CLR,SCT,0.00,WeatherDisplay:10.37,2013-10-15 13:11:00,
2013-10-15 09:16:00,63.1,57.2,29.59,SE,135,0.0,0.0,81,0.00,CLR,SCT,0.00,WeatherDisplay:10.37,2013-10-15 13:16:00,
2013-10-15 09:21:00,63.9,56.5,29.59,South,180,0.0,0.0,77,0.00,CLR,SCT,0.00,WeatherDisplay:10.37,2013-10-15 13:21:00,
2013-10-15 09:26:00,64.8,57.7,29.59,South,180,0.0,0.0,78,0.00,CLR,SCT,0.00,WeatherDisplay:10.37,2013-10-15 13:26:00,
2013-10-15 09:31:00,64.4,57.0,29.59,South,180,0.0,0.0,77,0.00,CLR,SCT,0.00,WeatherDisplay:10.37,2013-10-15 13:31:00,
2013-10-15 09:36:00,64.9,57.6,29.59,NE,45,0.0,0.0,77,0.00,CLR,SCT,0.00,WeatherDisplay:10.37,2013-10-15 13:36:00,
2013-10-15 09:41:00,64.6,57.2,29.59,North,0,0.0,0.0,77,0.00,CLR,SCT,0.00,WeatherDisplay:10.37,2013-10-15 13:41:00,
2013-10-15 09:46:00,64.0,56.7,29.59,North,0,0.0,0.0,77,0.00,CLR,SCT,0.00,WeatherDisplay:10.37,2013-10-15 13:46:00,
2013-10-15 09:51:00,65.5,58.1,29.59,South,180,0.0,0.0,77,0.00,CLR,SCT,0.00,WeatherDisplay:10.37,2013-10-15 13:51:00,
2013-10-15 09:56:00,65.1,57.0,29.59,South,180,0.0,0.0,75,0.00,CLR,SCT,0.00,WeatherDisplay:10.37,2013-10-15 13:56:00,
2013-10-15 10:01:00,66.7,58.2,29.59,NW,315,0.0,0.0,74,0.00,CLR,SCT,0.00,WeatherDisplay:10.37,2013-10-15 14:01:00,
2013-10-15 10:06:00,67.8,58.1,29.59,North,0,0.0,0.0,71,0.00,CLR,SCT,0.00,WeatherDisplay:10.37,2013-10-15 14:06:00,
2013-10-15 10:11:00,68.7,57.3,29.58,SE,135,0.0,0.0,67,0.00,CLR,SCT,0.00,WeatherDisplay:10.37,2013-10-15 14:11:00,
2013-10-15 10:16:00,68.9,56.6,29.58,NW,315,0.0,0.0,65,0.00,CLR,SCT,0.00,WeatherDisplay:10.37,2013-10-15 14:16:00,
2013-10-15 10:21:00,69.1,56.4,29.58,East,90,0.0,0.0,64,0.00,CLR,SCT,0.00,WeatherDisplay:10.37,2013-10-15 14:21:00,
2013-10-15 10:26:00,70.2,57.0,29.58,South,180,0.0,0.0,63,0.00,CLR,SCT,0.00,WeatherDisplay:10.37,2013-10-15 14:26:00,
2013-10-15 10:31:00,70.3,56.7,29.57,North,0,0.0,0.0,62,0.00,CLR,SCT,0.00,WeatherDisplay:10.37,2013-10-15 14:31:00,
2013-10-15 10:36:00,70.3,56.7,29.57,West,270,0.0,0.0,62,0.00,CLR,SCT,0.00,WeatherDisplay:10.37,2013-10-15 14:36:00,
2013-10-15 10:41:00,70.9,56.8,29.57,NE,45,0.0,0.0,61,0.00,CLR,SCT,0.00,WeatherDisplay:10.37,2013-10-15 14:41:00,
2013-10-15 10:46:00,70.5,55.5,29.57,South,180,0.0,0.0,59,0.00,CLR,SCT,0.00,WeatherDisplay:10.37,2013-10-15 14:46:00,
2013-10-15 10:51:00,69.4,55.9,29.57,SE,135,0.0,0.0,62,0.00,CLR,SCT,0.00,WeatherDisplay:10.37,2013-10-15 14:51:00,
2013-10-15 10:56:00,68.9,55.3,29.57,SE,135,0.0,0.0,62,0.00,CLR,SCT,0.00,WeatherDisplay:10.37,2013-10-15 14:56:00,
2013-10-15 11:01:00,69.1,56.4,29.57,South,180,0.0,0.0,64,0.00,CLR,SCT,0.00,WeatherDisplay:10.37,2013-10-15 15:01:00,
2013-10-15 11:06:00,69.8,56.6,29.57,North,0,0.0,0.0,63,0.00,CLR,SCT,0.00,WeatherDisplay:10.37,2013-10-15 15:06:00,
2013-10-15 11:11:00,70.3,56.2,29.56,NW,315,0.0,0.0,61,0.00,CLR,SCT,0.00,WeatherDisplay:10.37,2013-10-15 15:11:00,
2013-10-15 11:16:00,70.9,56.3,29.56,South,180,0.0,0.0,60,0.00,CLR,SCT,0.00,WeatherDisplay:10.37,2013-10-15 15:16:00,
2013-10-15 11:21:00,71.1,56.0,29.57,SW,225,0.0,0.0,59,0.00,CLR,SCT,0.00,WeatherDisplay:10.37,2013-10-15 15:21:00,
2013-10-15 11:26:00,70.7,55.2,29.57,North,0,0.0,0.0,58,0.00,CLR,SCT,0.00,WeatherDisplay:10.37,2013-10-15 15:26:00,
2013-10-15 11:31:00,70.2,54.2,29.57,SE,135,0.0,0.0,57,0.00,CLR,SCT,0.00,WeatherDisplay:10.37,2013-10-15 15:31:00,
2013-10-15 11:36:00,70.5,55.0,29.57,South,180,0.0,0.0,58,0.00,CLR,SCT,0.00,WeatherDisplay:10.37,2013-10-15 15:36:00,
2013-10-15 11:41:00,70.9,55.4,29.57,SE,135,0.0,0.0,58,0.00,CLR,SCT,0.00,WeatherDisplay:10.37,2013-10-15 15:41:00,
2013-10-15 11:46:00,71.2,56.2,29.57,South,180,0.0,0.0,59,0.00,CLR,SCT,0.00,WeatherDisplay:10.37,2013-10-15 15:46:00,
2013-10-15 11:51:00,71.1,56.0,29.57,SE,135,0.0,0.0,59,0.00,CLR,SCT,0.00,WeatherDisplay:10.37,2013-10-15 15:51:00,
2013-10-15 11:56:00,70.2,54.7,29.57,NE,45,0.0,0.0,58,0.00,CLR,SCT,0.00,WeatherDisplay:10.37,2013-10-15 15:56:00,
2013-10-15 12:01:00,69.1,55.1,29.56,North,0,0.0,0.0,61,0.00,CLR,SCT,0.00,WeatherDisplay:10.37,2013-10-15 16:01:00,
2013-10-15 12:06:00,68.9,55.3,29.56,North,0,0.0,0.0,62,0.00,CLR,SCT,0.00,WeatherDisplay:10.37,2013-10-15 16:06:00,
2013-10-15 12:11:00,67.5,55.3,29.56,SE,135,0.0,0.0,65,0.00,CLR,SCT,0.00,WeatherDisplay:10.37,2013-10-15 16:11:00,
2013-10-15 12:16:00,67.8,55.6,29.56,NW,315,0.0,0.0,65,0.00,CLR,SCT,0.00,WeatherDisplay:10.37,2013-10-15 16:16:00,
2013-10-15 12:21:00,67.3,55.5,29.56,NW,315,0.0,0.0,66,0.00,CLR,SCT,0.00,WeatherDisplay:10.37,2013-10-15 16:21:00,
2013-10-15 12:26:00,66.7,55.0,29.56,NW,315,0.0,0.0,66,0.00,CLR,SCT,0.00,WeatherDisplay:10.37,2013-10-15 16:26:00,
2013-10-15 12:31:00,66.4,54.7,29.56,North,0,0.0,0.0,66,0.00,CLR,SCT,0.00,WeatherDisplay:10.37,2013-10-15 16:31:00,
2013-10-15 12:36:00,68.7,56.0,29.55,SE,135,0.0,0.0,64,0.00,CLR,SCT,0.00,WeatherDisplay:10.37,2013-10-15 16:36:00,
2013-10-15 12:41:00,69.6,56.5,29.55,South,180,0.0,0.0,63,0.00,CLR,SCT,0.00,WeatherDisplay:10.37,2013-10-15 16:41:00,
2013-10-15 12:46:00,70.5,56.0,29.55,North,0,0.0,0.0,60,0.00,CLR,SCT,0.00,WeatherDisplay:10.37,2013-10-15 16:46:00,
2013-10-15 12:51:00,70.3,55.3,29.55,East,90,0.0,0.0,59,0.00,CLR,SCT,0.00,WeatherDisplay:10.37,2013-10-15 16:51:00,
2013-10-15 12:56:00,70.9,56.3,29.55,North,0,0.0,0.0,60,0.00,CLR,SCT,0.00,WeatherDisplay:10.37,2013-10-15 16:56:00,
2013-10-15 13:01:00,71.4,56.3,29.55,North,0,0.0,0.0,59,0.00,CLR,SCT,0.00,WeatherDisplay:10.37,2013-10-15 17:01:00,
2013-10-15 13:06:00,71.2,56.6,29.54,North,0,0.0,0.0,60,0.00,CLR,SCT,0.00,WeatherDisplay:10.37,2013-10-15 17:06:00,
2013-10-15 13:11:00,72.3,55.7,29.53,South,180,0.0,0.0,56,0.00,CLR,SCT,0.00,WeatherDisplay:10.37,2013-10-15 17:11:00,
2013-10-15 13:16:00,72.0,55.9,29.54,North,0,0.0,0.0,57,0.00,CLR,SCT,0.00,WeatherDisplay:10.37,2013-10-15 17:16:00,
2013-10-15 13:21:00,71.4,55.4,29.53,SE,135,0.0,0.0,57,0.00,CLR,SCT,0.00,WeatherDisplay:10.37,2013-10-15 17:21:00,
2013-10-15 13:26:00,70.9,55.4,29.53,SE,135,0.0,0.0,58,0.00,CLR,SCT,0.00,WeatherDisplay:10.37,2013-10-15 17:26:00,
2013-10-15 13:31:00,70.7,55.2,29.53,South,180,0.0,0.0,58,0.00,CLR,SCT,0.00,WeatherDisplay:10.37,2013-10-15 17:31:00,
2013-10-15 13:36:00,71.2,56.6,29.52,SE,135,0.0,0.0,60,0.00,CLR,SCT,0.00,WeatherDisplay:10.37,2013-10-15 17:36:00,
2013-10-15 13:41:00,71.2,55.7,29.52,South,180,0.0,0.0,58,0.00,CLR,SCT,0.00,WeatherDisplay:10.37,2013-10-15 17:41:00,
2013-10-15 13:46:00,71.1,55.5,29.52,NW,315,0.0,0.0,58,0.00,CLR,SCT,0.00,WeatherDisplay:10.37,2013-10-15 17:46:00,
2013-10-15 13:51:00,71.2,56.6,29.51,South,180,0.0,0.0,60,0.00,CLR,SCT,0.00,WeatherDisplay:10.37,2013-10-15 17:51:00,
2013-10-15 13:56:00,72.0,56.4,29.51,South,180,0.0,0.0,58,0.00,CLR,SCT,0.00,WeatherDisplay:10.37,2013-10-15 17:56:00,
2013-10-15 14:01:00,71.4,55.4,29.51,South,180,0.0,0.0,57,0.00,CLR,SCT,0.00,WeatherDisplay:10.37,2013-10-15 18:01:00,
2013-10-15 14:06:00,71.4,56.8,29.51,North,0,0.0,0.0,60,0.00,CLR,SCT,0.00,WeatherDisplay:10.37,2013-10-15 18:06:00,
2013-10-15 14:11:00,71.4,56.8,29.50,SE,135,0.0,0.0,60,0.00,CLR,SCT,0.00,WeatherDisplay:10.37,2013-10-15 18:11:00,
2013-10-15 14:16:00,72.1,57.0,29.50,NW,315,0.0,0.0,59,0.00,CLR,SCT,0.00,WeatherDisplay:10.37,2013-10-15 18:16:00,
2013-10-15 14:21:00,72.1,56.1,29.50,South,180,0.0,0.0,57,0.00,CLR,SCT,0.00,WeatherDisplay:10.37,2013-10-15 18:21:00,
2013-10-15 14:27:00,72.1,56.1,29.49,SE,135,0.0,0.0,57,0.00,CLR,SCT,0.00,WeatherDisplay:10.37,2013-10-15 18:27:00,
2013-10-15 14:32:00,72.3,55.7,29.49,SE,135,0.0,0.0,56,0.00,CLR,SCT,0.00,WeatherDisplay:10.37,2013-10-15 18:32:00,
2013-10-15 14:37:00,72.3,56.2,29.49,South,180,0.0,0.0,57,0.00,CLR,SCT,0.00,WeatherDisplay:10.37,2013-10-15 18:37:00,
2013-10-15 14:42:00,72.3,55.7,29.48,North,0,0.0,0.0,56,0.00,CLR,SCT,0.00,WeatherDisplay:10.37,2013-10-15 18:42:00,
2013-10-15 14:47:00,72.5,56.4,29.49,SE,135,0.0,0.0,57,0.00,CLR,SCT,0.00,WeatherDisplay:10.37,2013-10-15 18:47:00,
2013-10-15 14:52:00,72.5,55.4,29.48,NW,315,0.0,0.0,55,0.00,CLR,SCT,0.00,WeatherDisplay:10.37,2013-10-15 18:52:00,
2013-10-15 14:57:00,72.1,55.1,29.48,SE,135,0.0,0.0,55,0.00,CLR,SCT,0.00,WeatherDisplay:10.37,2013-10-15 18:57:00,
2013-10-15 15:02:00,71.2,55.2,29.48,North,0,0.0,0.0,57,0.00,CLR,SCT,0.00,WeatherDisplay:10.37,2013-10-15 19:02:00,
2013-10-15 15:07:00,71.4,55.9,29.48,North,0,0.0,0.0,58,0.00,CLR,SCT,0.00,WeatherDisplay:10.37,2013-10-15 19:07:00,
2013-10-15 15:12:00,72.1,56.5,29.48,SE,135,0.0,0.0,58,0.00,CLR,SCT,0.00,WeatherDisplay:10.37,2013-10-15 19:12:00,
2013-10-15 15:17:00,71.8,54.7,29.48,SE,135,0.0,0.0,55,0.00,CLR,SCT,0.00,WeatherDisplay:10.37,2013-10-15 19:17:00,
2013-10-15 15:22:00,71.4,56.3,29.48,SE,135,0.0,0.0,59,0.00,CLR,SCT,0.00,WeatherDisplay:10.37,2013-10-15 19:22:00,
2013-10-15 15:27:00,71.4,56.8,29.47,SE,135,0.0,0.0,60,0.00,CLR,SCT,0.00,WeatherDisplay:10.37,2013-10-15 19:27:00,
2013-10-15 15:32:00,71.8,56.7,29.47,SE,135,0.0,0.0,59,0.00,CLR,SCT,0.00,WeatherDisplay:10.37,2013-10-15 19:32:00,
2013-10-15 15:37:00,72.0,55.9,29.47,SE,135,0.0,0.0,57,0.00,CLR,SCT,0.00,WeatherDisplay:10.37,2013-10-15 19:37:00,
2013-10-15 15:42:00,72.1,55.6,29.47,South,180,0.0,0.0,56,0.00,CLR,SCT,0.00,WeatherDisplay:10.37,2013-10-15 19:42:00,
2013-10-15 15:47:00,72.1,56.5,29.47,NW,315,0.0,0.0,58,0.00,CLR,SCT,0.00,WeatherDisplay:10.37,2013-10-15 19:47:00,
2013-10-15 15:52:00,72.1,57.0,29.47,SW,225,0.0,0.0,59,0.00,CLR,SCT,0.00,WeatherDisplay:10.37,2013-10-15 19:52:00,
2013-10-15 15:57:00,71.6,55.6,29.47,SW,225,0.0,0.0,57,0.00,CLR,SCT,0.00,WeatherDisplay:10.37,2013-10-15 19:57:00,
2013-10-15 16:02:00,71.6,56.0,29.46,North,0,0.0,0.0,58,0.00,CLR,SCT,0.00,WeatherDisplay:10.37,2013-10-15 20:02:00,
2013-10-15 16:07:00,71.6,57.0,29.47,NE,45,0.0,0.0,60,0.00,CLR,SCT,0.00,WeatherDisplay:10.37,2013-10-15 20:07:00,
2013-10-15 16:12:00,71.4,56.3,29.47,North,0,1.2,0.0,59,0.00,CLR,SCT,0.00,WeatherDisplay:10.37,2013-10-15 20:12:00,
2013-10-15 16:17:00,71.6,56.0,29.46,SW,225,0.0,0.0,58,0.00,CLR,SCT,0.00,WeatherDisplay:10.37,2013-10-15 20:17:00,
2013-10-15 16:22:00,72.0,57.3,29.46,SW,225,0.0,0.0,60,0.00,CLR,SCT,0.00,WeatherDisplay:10.37,2013-10-15 20:22:00,
2013-10-15 16:27:00,72.1,57.5,29.46,NE,45,0.0,0.0,60,0.00,CLR,SCT,0.00,WeatherDisplay:10.37,2013-10-15 20:27:00,
2013-10-15 16:32:00,72.1,57.0,29.46,South,180,1.2,0.0,59,0.00,CLR,SCT,0.00,WeatherDisplay:10.37,2013-10-15 20:32:00,
2013-10-15 16:37:00,72.1,57.5,29.46,South,180,1.2,0.0,60,0.00,CLR,SCT,0.00,WeatherDisplay:10.37,2013-10-15 20:37:00,
2013-10-15 16:42:00,72.0,56.8,29.46,NW,315,0.0,0.0,59,0.00,CLR,SCT,0.00,WeatherDisplay:10.37,2013-10-15 20:42:00,
2013-10-15 16:47:00,71.6,56.5,29.46,South,180,0.0,0.0,59,0.00,CLR,SCT,0.00,WeatherDisplay:10.37,2013-10-15 20:47:00,
2013-10-15 16:52:00,71.2,55.7,29.46,South,180,1.2,0.0,58,0.00,CLR,SCT,0.00,WeatherDisplay:10.37,2013-10-15 20:52:00,
2013-10-15 16:57:00,71.1,56.0,29.46,SE,135,0.0,0.0,59,0.00,CLR,SCT,0.00,WeatherDisplay:10.37,2013-10-15 20:57:00,
2013-10-15 17:02:00,71.1,55.5,29.46,SE,135,0.0,0.0,58,0.00,CLR,SCT,0.00,WeatherDisplay:10.37,2013-10-15 21:02:00,
2013-10-15 17:07:00,70.7,56.1,29.46,South,180,0.0,0.0,60,0.00,CLR,SCT,0.00,WeatherDisplay:10.37,2013-10-15 21:07:00,
2013-10-15 17:12:00,70.5,56.9,29.46,North,0,1.2,0.0,62,0.00,CLR,SCT,0.00,WeatherDisplay:10.37,2013-10-15 21:12:00,
2013-10-15 17:17:00,70.3,56.7,29.46,North,0,1.2,0.0,62,0.00,CLR,SCT,0.00,WeatherDisplay:10.37,2013-10-15 21:17:00,
2013-10-15 17:22:00,70.5,56.4,29.46,SE,135,0.0,0.0,61,0.00,CLR,SCT,0.00,WeatherDisplay:10.37,2013-10-15 21:22:00,
2013-10-15 17:27:00,70.7,56.6,29.46,South,180,0.0,0.0,61,0.00,CLR,SCT,0.00,WeatherDisplay:10.37,2013-10-15 21:27:00,
2013-10-15 17:32:00,70.5,56.4,29.46,South,180,1.6,0.0,61,0.00,CLR,SCT,0.00,WeatherDisplay:10.37,2013-10-15 21:32:00,
2013-10-15 17:37:00,70.3,56.7,29.47,South,180,1.2,0.0,62,0.00,CLR,SCT,0.00,WeatherDisplay:10.37,2013-10-15 21:37:00,
2013-10-15 17:42:00,70.2,56.5,29.46,SE,135,1.2,0.0,62,0.00,CLR,SCT,0.00,WeatherDisplay:10.37,2013-10-15 21:42:00,
2013-10-15 17:47:00,69.8,56.2,29.46,East,90,1.2,0.0,62,0.00,CLR,SCT,0.00,WeatherDisplay:10.37,2013-10-15 21:47:00,
2013-10-15 17:52:00,69.6,56.5,29.46,East,90,1.2,0.0,63,0.00,CLR,SCT,0.00,WeatherDisplay:10.37,2013-10-15 21:52:00,
2013-10-15 17:57:00,69.3,56.1,29.46,East,90,0.0,0.0,63,0.00,CLR,SCT,0.00,WeatherDisplay:10.37,2013-10-15 21:57:00,
2013-10-15 18:02:00,68.9,56.2,29.47,East,90,0.0,0.0,64,0.00,CLR,SCT,0.00,WeatherDisplay:10.37,2013-10-15 22:02:00,
2013-10-15 18:07:00,68.5,55.9,29.46,East,90,0.0,0.0,64,0.00,CLR,SCT,0.00,WeatherDisplay:10.37,2013-10-15 22:07:00,
2013-10-15 18:12:00,68.4,56.6,29.46,East,90,0.0,0.0,66,0.00,CLR,SCT,0.00,WeatherDisplay:10.37,2013-10-15 22:12:00,
2013-10-15 18:17:00,68.0,56.6,29.46,East,90,0.0,0.0,67,0.00,CLR,SCT,0.00,WeatherDisplay:10.37,2013-10-15 22:17:00,
2013-10-15 18:22:00,67.5,57.7,29.46,East,90,0.0,0.0,71,0.00,CLR,SCT,0.00,WeatherDisplay:10.37,2013-10-15 22:22:00,
2013-10-15 18:27:00,67.1,57.4,29.46,East,90,0.0,0.0,71,0.00,CLR,SCT,0.00,WeatherDisplay:10.37,2013-10-15 22:27:00,
2013-10-15 18:32:00,66.6,57.6,29.47,East,90,0.0,0.0,73,0.00,CLR,SCT,0.00,WeatherDisplay:10.37,2013-10-15 22:32:00,
2013-10-15 18:37:00,66.2,57.3,29.46,East,90,0.0,0.0,73,0.00,CLR,SCT,0.00,WeatherDisplay:10.37,2013-10-15 22:37:00,
2013-10-15 18:42:00,65.5,57.3,29.47,South,180,0.0,0.0,75,0.00,CLR,SCT,0.00,WeatherDisplay:10.37,2013-10-15 22:42:00,
2013-10-15 18:47:00,64.9,57.2,29.47,South,180,0.0,0.0,76,0.00,CLR,SCT,0.00,WeatherDisplay:10.37,2013-10-15 22:47:00,
2013-10-15 18:52:00,64.4,57.0,29.47,South,180,0.0,0.0,77,0.00,CLR,SCT,0.00,WeatherDisplay:10.37,2013-10-15 22:52:00,
2013-10-15 18:57:00,64.0,57.0,29.47,South,180,0.0,0.0,78,0.00,CLR,SCT,0.00,WeatherDisplay:10.37,2013-10-15 22:57:00,
2013-10-15 19:02:00,63.9,56.9,29.47,South,180,0.0,0.0,78,0.00,CLR,SCT,0.00,WeatherDisplay:10.37,2013-10-15 23:02:00,
2013-10-15 19:07:00,63.7,57.0,29.47,South,180,0.0,0.0,79,0.00,CLR,SCT,0.00,WeatherDisplay:10.37,2013-10-15 23:07:00,
2013-10-15 19:12:00,63.3,57.0,29.47,South,180,0.0,0.0,80,0.00,CLR,SCT,0.00,WeatherDisplay:10.37,2013-10-15 23:12:00,
2013-10-15 19:18:00,63.0,57.0,29.46,South,180,0.0,0.0,81,0.00,CLR,SCT,0.00,WeatherDisplay:10.37,2013-10-15 23:18:00,
2013-10-15 19:23:00,62.6,56.7,29.47,South,180,0.0,0.0,81,0.00,CLR,SCT,0.00,WeatherDisplay:10.37,2013-10-15 23:23:00,
2013-10-15 19:28:00,62.4,56.9,29.47,South,180,0.0,0.0,82,0.00,CLR,SCT,0.00,WeatherDisplay:10.37,2013-10-15 23:28:00,
2013-10-15 19:33:00,62.1,56.8,29.47,South,180,1.2,0.0,83,0.00,CLR,SCT,0.00,WeatherDisplay:10.37,2013-10-15 23:33:00,
2013-10-15 19:38:00,61.9,57.0,29.47,South,180,1.2,0.0,84,0.00,CLR,SCT,0.00,WeatherDisplay:10.37,2013-10-15 23:38:00,
2013-10-15 19:43:00,61.7,56.8,29.48,South,180,1.2,0.0,84,0.00,CLR,SCT,0.00,WeatherDisplay:10.37,2013-10-15 23:43:00,
2013-10-15 19:48:00,61.5,56.6,29.48,South,180,1.2,0.0,84,0.00,CLR,SCT,0.00,WeatherDisplay:10.37,2013-10-15 23:48:00,
2013-10-15 19:53:00,61.3,56.5,29.47,South,180,1.2,0.0,84,0.00,CLR,SCT,0.00,WeatherDisplay:10.37,2013-10-15 23:53:00,
2013-10-15 19:58:00,61.2,56.6,29.47,South,180,0.0,0.0,85,0.00,CLR,SCT,0.00,WeatherDisplay:10.37,2013-10-15 23:58:00,
2013-10-15 20:03:00,60.8,56.3,29.47,South,180,0.0,0.0,85,0.00,CLR,SCT,0.00,WeatherDisplay:10.37,2013-10-16 00:03:00,
2013-10-15 20:08:00,60.6,56.4,29.47,South,180,0.0,0.0,86,0.00,CLR,SCT,0.00,WeatherDisplay:10.37,2013-10-16 00:08:00,
2013-10-15 20:13:00,60.4,56.2,29.47,South,180,0.0,0.0,86,0.00,CLR,SCT,0.00,WeatherDisplay:10.37,2013-10-16 00:13:00,
2013-10-15 20:18:00,60.3,56.1,29.47,South,180,0.0,0.0,86,0.00,CLR,SCT,0.00,WeatherDisplay:10.37,2013-10-16 00:18:00,
2013-10-15 20:23:00,60.1,56.2,29.48,South,180,0.0,0.0,87,0.00,CLR,SCT,0.00,WeatherDisplay:10.37,2013-10-16 00:23:00,
2013-10-15 20:28:00,60.1,56.2,29.48,South,180,0.0,0.0,87,0.00,CLR,SCT,0.00,WeatherDisplay:10.37,2013-10-16 00:28:00,
2013-10-15 20:33:00,60.1,56.2,29.48,South,180,0.0,0.0,87,0.00,CLR,SCT,0.00,WeatherDisplay:10.37,2013-10-16 00:33:00,
2013-10-15 20:38:00,60.1,56.5,29.48,South,180,1.2,0.0,88,0.00,CLR,SCT,0.00,WeatherDisplay:10.37,2013-10-16 00:38:00,
2013-10-15 20:43:00,60.1,56.5,29.48,South,180,0.0,0.0,88,0.00,CLR,SCT,0.00,WeatherDisplay:10.37,2013-10-16 00:43:00,
2013-10-15 20:48:00,60.1,56.5,29.48,South,180,0.0,0.0,88,0.00,CLR,SCT,0.00,WeatherDisplay:10.37,2013-10-16 00:48:00,
2013-10-15 20:53:00,60.1,56.5,29.48,South,180,0.0,0.0,88,0.00,CLR,SCT,0.00,WeatherDisplay:10.37,2013-10-16 00:53:00,
2013-10-15 20:58:00,60.1,56.8,29.48,South,180,0.0,0.0,89,0.00,CLR,SCT,0.00,WeatherDisplay:10.37,2013-10-16 00:58:00,
2013-10-15 21:03:00,60.1,56.8,29.48,South,180,0.0,0.0,89,0.00,CLR,SCT,0.00,WeatherDisplay:10.37,2013-10-16 01:03:00,
2013-10-15 21:08:00,59.9,56.6,29.48,South,180,0.0,0.0,89,0.00,CLR,SCT,0.00,WeatherDisplay:10.37,2013-10-16 01:08:00,
2013-10-15 21:13:00,60.1,56.8,29.48,South,180,1.2,0.0,89,0.00,CLR,SCT,0.00,WeatherDisplay:10.37,2013-10-16 01:13:00,
2013-10-15 21:18:00,60.1,56.8,29.48,South,180,1.2,0.0,89,0.00,CLR,SCT,0.00,WeatherDisplay:10.37,2013-10-16 01:18:00,
2013-10-15 21:23:00,59.9,56.6,29.48,South,180,1.2,0.0,89,0.00,CLR,SCT,0.00,WeatherDisplay:10.37,2013-10-16 01:23:00,
2013-10-15 21:28:00,59.9,56.6,29.48,South,180,1.2,0.0,89,0.00,CLR,SCT,0.00,WeatherDisplay:10.37,2013-10-16 01:28:00,
2013-10-15 21:33:00,59.9,56.6,29.48,South,180,1.6,0.0,89,0.00,CLR,SCT,0.00,WeatherDisplay:10.37,2013-10-16 01:33:00,
2013-10-15 21:38:00,59.9,56.6,29.48,South,180,1.2,0.0,89,0.00,CLR,SCT,0.00,WeatherDisplay:10.37,2013-10-16 01:38:00,
2013-10-15 21:43:00,59.7,56.8,29.48,South,180,1.2,0.0,90,0.00,CLR,SCT,0.00,WeatherDisplay:10.37,2013-10-16 01:43:00,
2013-10-15 21:48:00,59.7,56.8,29.48,South,180,0.0,0.0,90,0.00,CLR,SCT,0.00,WeatherDisplay:10.37,2013-10-16 01:48:00,
2013-10-15 21:53:00,59.5,56.6,29.48,South,180,0.0,0.0,90,0.00,CLR,SCT,0.00,WeatherDisplay:10.37,2013-10-16 01:53:00,
2013-10-15 21:58:00,59.5,56.6,29.48,South,180,0.0,0.0,90,0.00,CLR,SCT,0.00,WeatherDisplay:10.37,2013-10-16 01:58:00,
2013-10-15 22:03:00,59.5,56.6,29.49,South,180,0.0,0.0,90,0.00,CLR,SCT,0.00,WeatherDisplay:10.37,2013-10-16 02:03:00,
2013-10-15 22:08:00,59.4,56.7,29.48,South,180,0.0,0.0,91,0.00,CLR,SCT,0.00,WeatherDisplay:10.37,2013-10-16 02:08:00,
2013-10-15 22:13:00,59.4,56.7,29.48,South,180,0.0,0.0,91,0.00,CLR,SCT,0.00,WeatherDisplay:10.37,2013-10-16 02:13:00,
2013-10-15 22:18:00,59.4,56.7,29.48,South,180,0.0,0.0,91,0.00,CLR,SCT,0.00,WeatherDisplay:10.37,2013-10-16 02:18:00,
2013-10-15 22:23:00,59.4,56.7,29.49,South,180,0.0,0.0,91,0.00,CLR,SCT,0.00,WeatherDisplay:10.37,2013-10-16 02:23:00,
2013-10-15 22:28:00,59.2,56.6,29.49,South,180,0.0,0.0,91,0.00,CLR,SCT,0.00,WeatherDisplay:10.37,2013-10-16 02:28:00,
2013-10-15 22:33:00,59.2,56.6,29.50,South,180,0.0,0.0,91,0.00,CLR,SCT,0.00,WeatherDisplay:10.37,2013-10-16 02:33:00,
2013-10-15 22:38:00,59.2,56.9,29.50,South,180,0.0,0.0,92,0.00,CLR,SCT,0.00,WeatherDisplay:10.37,2013-10-16 02:38:00,
2013-10-15 22:43:00,59.2,56.9,29.50,South,180,0.0,0.0,92,0.00,CLR,SCT,0.00,WeatherDisplay:10.37,2013-10-16 02:43:00,
2013-10-15 22:48:00,59.0,56.7,29.50,South,180,0.0,0.0,92,0.00,CLR,SCT,0.00,WeatherDisplay:10.37,2013-10-16 02:48:00,
2013-10-15 22:53:00,59.0,56.7,29.50,South,180,0.0,0.0,92,0.00,CLR,SCT,0.00,WeatherDisplay:10.37,2013-10-16 02:53:00,
2013-10-15 22:58:00,58.8,56.8,29.49,South,180,0.0,0.0,93,0.00,CLR,SCT,0.00,WeatherDisplay:10.37,2013-10-16 02:58:00,
2013-10-15 23:03:00,58.6,56.6,29.49,South,180,1.2,0.0,93,0.00,CLR,SCT,0.00,WeatherDisplay:10.37,2013-10-16 03:03:00,
2013-10-15 23:08:00,58.6,56.6,29.49,South,180,1.2,0.0,93,0.00,CLR,SCT,0.00,WeatherDisplay:10.37,2013-10-16 03:08:00,
2013-10-15 23:13:00,58.5,56.4,29.49,South,180,1.2,0.0,93,0.00,CLR,SCT,0.00,WeatherDisplay:10.37,2013-10-16 03:13:00,
2013-10-15 23:18:00,58.5,56.4,29.49,South,180,0.0,0.0,93,0.00,CLR,SCT,0.00,WeatherDisplay:10.37,2013-10-16 03:18:00,
2013-10-15 23:23:00,58.3,56.3,29.49,South,180,0.0,0.0,93,0.00,CLR,SCT,0.00,WeatherDisplay:10.37,2013-10-16 03:23:00,
2013-10-15 23:29:00,58.3,56.6,29.50,South,180,0.0,0.0,94,0.00,CLR,SCT,0.00,WeatherDisplay:10.37,2013-10-16 03:29:00,
2013-10-15 23:34:00,58.3,56.6,29.50,South,180,0.0,0.0,94,0.00,CLR,SCT,0.00,WeatherDisplay:10.37,2013-10-16 03:34:00,
2013-10-15 23:39:00,58.3,56.6,29.50,South,180,0.0,0.0,94,0.00,CLR,SCT,0.00,WeatherDisplay:10.37,2013-10-16 03:39:00,
2013-10-15 23:44:00,58.3,56.6,29.50,South,180,0.0,0.0,94,0.00,CLR,SCT,0.00,WeatherDisplay:10.37,2013-10-16 03:44:00,
2013-10-15 23:49:00,58.1,56.4,29.50,South,180,0.0,0.0,94,0.00,CLR,SCT,0.00,WeatherDisplay:10.37,2013-10-16 03:49:00,
2013-10-15 23:54:00,58.1,56.4,29.50,South,180,0.0,0.0,94,0.00,CLR,SCT,0.00,WeatherDisplay:10.37,2013-10-16 03:54:00,
2013-10-15 23:59:00,57.9,56.2,29.50,South,180,0.0,0.0,94,0.00,CLR,SCT,0.00,WeatherDisplay:10.37,2013-10-16 03:59:00,